Torna al catalogo

STARLINK-34780

AttivoComunicazioniSSO
NORAD 65074·PAYLOAD·🇺🇸 United States

Lanciato Jul 31, 2025 da Vandenberg Space Force Base

Loading…

Prossimi Passaggi (prossime 24 ore)

TLE

AggiornatoSource: CelesTrak SupGP

Epoca: Sep 15, 2026, 03:34 UTC

1 65074C 25165U   26258.14909722  .02198100  00000+0  74538-1 0  2584
2 65074  97.2842 329.4179 0001757  84.5826 268.9720 15.29493787    14

Traccia STARLINK-34780 in tempo reale con AllMySat

Download on the App Store